DW7533 Weather Reports


time (UTC)temp
F
wind
direction
speed
knots
gust
knots
rain 1hr
in
rain 24hr
in
rain mn
in
humidity
%
barometer
mb
20260506201304 46 333 0.0 0.9 0.00 0.00 0.00 95 1032.2
20260506200805 46 333 0.9 0.9 0.00 0.00 0.00 94 1032.2
20260506200305 46 333 0.0 0.9 0.00 0.00 0.00 95 1032.2
20260506195805 46 333 0.0 0.9 0.00 0.00 0.00 95 1032.2
20260506195306 46 333 0.0 0.9 0.00 0.00 0.00 94 1032.1
20260506194805 46 333 0.0 0.9 0.00 0.00 0.00 94 1032.1
20260506194305 46 333 0.0 1.7 0.00 0.00 0.00 94 1032.1
20260506193805 46 333 0.0 1.7 0.00 0.00 0.00 94 1032.0
20260506193305 47 333 0.0 1.7 0.00 0.00 0.00 94 1032.0
20260506192805 47 333 0.0 0.9 0.00 0.00 0.00 94 1032.0
20260506192306 47 333 0.0 1.7 0.00 0.00 0.00 94 1032.0
20260506191304 48 333 0.0 0.9 0.00 0.00 0.00 94 1032.1
20260506190805 48 333 0.0 0.9 0.00 0.00 0.00 94 1032.1
20260506190305 48 333 0.0 1.7 0.00 0.00 0.00 94 1032.1
20260506185805 48 333 0.0 1.7 0.00 0.00 0.00 94 1032.1
20260506185307 48 333 0.0 1.7 0.00 0.00 0.00 94 1032.1
20260506184804 49 333 0.9 1.7 0.00 0.00 0.00 94 1032.0
20260506184305 49 328 0.0 1.7 0.00 0.00 0.00 94 1032.0
20260506183804 49 328 0.0 0.9 0.00 0.00 0.00 94 1032.0
20260506182805 50 7 0.0 1.7 0.00 0.00 0.00 94 1032.0
20260506182306 50 7 0.9 1.7 0.00 0.00 0.00 94 1032.0
20260506181805 50 7 0.0 1.7 0.00 0.00 0.00 94 1032.0
20260506181305 50 2 0.0 4.3 0.00 0.00 0.00 94 1032.0
20260506180805 50 64 0.0 0.9 0.00 0.00 0.00 94 1032.0
20260506180305 50 64 0.0 2.6 0.00 0.00 0.00 94 1032.0
20260506175804 50 60 0.0 0.9 0.00 0.00 0.00 94 1032.0
20260506175306 50 59 0.9 2.6 0.00 0.00 0.00 94 1032.0
20260506174305 49 304 0.9 1.7 0.00 0.00 0.00 93 1032.0
20260506173805 49 304 0.9 1.7 0.00 0.00 0.00 93 1032.0
20260506173304 49 281 1.7 2.6 0.00 0.00 0.00 93 1032.1
20260506172804 50 213 0.0 2.6 0.00 0.00 0.00 93 1032.1
20260506172307 50 121 0.0 1.7 0.00 0.00 0.00 93 1032.1
20260506171805 49 92 0.9 4.3 0.00 0.00 0.00 93 1032.1
20260506171305 49 12 0.9 1.7 0.00 0.00 0.00 92 1032.1
20260506170804 49 357 0.0 2.6 0.00 0.00 0.00 92 1032.1
20260506170305 49 0 2.6 5.2 0.00 0.00 0.00 92 1032.1
20260506165805 49 293 0.0 0.9 0.00 0.00 0.00 91 1032.1
20260506164304 50 10 0.0 0.9 0.00 0.00 0.00 90 1032.1
20260506163805 50 10 0.0 1.7 0.00 0.00 0.00 90 1032.1
20260506163305 50 284 0.9 1.7 0.00 0.00 0.00 89 1032.1
20260506162805 50 261 0.0 1.7 0.00 0.00 0.00 89 1032.1
20260506162307 50 359 0.0 1.7 0.00 0.00 0.00 88 1032.1
20260506161805 51 359 0.9 1.7 0.00 0.00 0.00 88 1032.2
20260506161305 51 330 0.0 1.7 0.00 0.00 0.00 88 1032.2
20260506160820 51 333 0.9 2.6 0.00 0.00 0.00 87 1032.2
20260506160307 52 24 2.6 6.1 0.00 0.00 0.00 87 1032.2
20260506155806 52 357 0.0 2.6 0.00 0.00 0.00 87 1032.2
20260506155306 52 266 0.9 1.7 0.00 0.00 0.00 87 1032.2
20260506154807 52 305 0.0 1.7 0.00 0.00 0.00 86 1032.2
20260506154305 53 344 0.0 1.7 0.00 0.00 0.00 86 1032.2
20260506153805 53 338 0.9 1.7 0.00 0.00 0.00 85 1032.2
20260506152805 53 338 0.0 1.7 0.00 0.00 0.00 85 1032.2
20260506152306 54 310 0.0 1.7 0.00 0.00 0.00 85 1032.2
20260506151806 54 213 0.0 0.9 0.00 0.00 0.00 84 1032.2
20260506150804 54 213 0.0 0.9 0.00 0.00 0.00 83 1032.2
20260506150305 55 213 0.0 1.7 0.00 0.00 0.00 83 1032.2
20260506145306 55 154 0.0 0.9 0.00 0.00 0.00 83 1032.3
20260506144806 55 154 0.0 0.9 0.00 0.00 0.00 83 1032.3
20260506144305 56 154 0.9 1.7 0.00 0.00 0.00 83 1031.9
20260506143805 56 67 0.9 0.9 0.00 0.00 0.00 82 1031.9
20260506143306 56 49 0.0 1.7 0.00 0.00 0.00 82 1031.9
20260506142805 56 49 0.0 0.9 0.00 0.00 0.00 82 1031.9
20260506142306 56 49 0.0 1.7 0.00 0.00 0.00 82 1031.9
20260506140806 56 66 0.9 1.7 0.00 0.00 0.00 82 1031.9
20260506140305 56 84 0.9 2.6 0.00 0.00 0.00 82 1031.9
20260506135805 56 64 0.9 2.6 0.00 0.00 0.00 82 1031.9
20260506135306 56 24 0.9 1.7 0.00 0.00 0.00 83 1031.9
20260506134806 56 327 0.0 1.7 0.00 0.00 0.00 83 1031.9
20260506134304 56 297 0.9 2.6 0.00 0.00 0.00 83 1031.6
20260506133805 56 75 0.9 2.6 0.00 0.00 0.00 83 1031.6
20260506133304 56 40 0.9 2.6 0.00 0.00 0.00 83 1031.6
20260506132805 56 87 0.9 2.6 0.00 0.00 0.00 84 1031.6
20260506132307 56 236 0.9 2.6 0.00 0.00 0.00 84 1031.6
20260506131805 56 239 0.9 2.6 0.00 0.00 0.00 84 1031.6
20260506131306 56 220 0.0 1.7 0.00 0.00 0.00 85 1031.6
20260506130806 56 253 0.9 4.3 0.00 0.00 0.00 85 1031.6
20260506130305 56 264 1.7 2.6 0.00 0.00 0.00 86 1031.6
20260506125804 55 102 1.7 4.3 0.00 0.00 0.00 87 1031.5
20260506124804 55 199 0.9 4.3 0.00 0.00 0.00 87 1031.5
20260506124306 54 80 0.9 5.2 0.00 0.00 0.00 87 1031.5
20260506123805 54 184 0.9 2.6 0.00 0.00 0.00 87 1031.4
20260506123306 54 258 0.0 2.6 0.00 0.00 0.00 86 1031.4
20260506122805 54 263 0.9 1.7 0.00 0.00 0.00 86 1031.4
20260506121805 54 357 0.9 0.9 0.00 0.00 0.00 84 1031.4
20260506121305 54 5 0.0 0.9 0.00 0.00 0.00 83 1031.4
20260506120304 55 53 0.0 0.9 0.00 0.00 0.00 82 1031.4
20260506115806 55 53 0.0 0.9 0.00 0.00 0.00 81 1031.4
20260506114804 56 53 0.0 1.7 0.00 0.00 0.00 81 1031.2
20260506114304 56 53 0.0 0.9 0.00 0.00 0.00 80 1031.2
20260506113804 56 53 0.0 0.0 0.00 0.00 0.00 80 1030.3
20260506113306 57 53 0.0 0.9 0.00 0.00 0.00 80 1030.3
20260506112306 57 53 0.0 0.9 0.00 0.00 0.00 79 1030.3
20260506111806 57 53 0.0 0.9 0.00 0.00 0.00 79 1030.3
20260506111305 58 53 0.0 2.6 0.00 0.00 0.00 79 1030.3
20260506110304 58 55 0.9 1.7 0.00 0.00 0.00 77 1030.3
20260506105804 59 230 0.0 0.0 0.00 0.00 0.00 77 1030.3
20260506104805 59 230 0.0 0.0 0.00 0.00 0.00 77 1030.3
20260506104305 60 230 0.0 0.0 0.00 0.00 0.00 76 1030.3
20260506103806 60 230 0.0 0.0 0.00 0.00 0.00 76 1030.3
20260506103305 60 230 0.0 0.0 0.00 0.00 0.00 75 1030.3
20260506102805 61 230 0.0 0.0 0.00 0.00 0.00 75 1030.3
20260506102305 61 230 0.0 0.0 0.00 0.00 0.00 74 1030.3
20260506101805 61 230 0.0 0.0 0.00 0.00 0.00 73 1030.3
20260506101305 62 230 0.0 0.0 0.00 0.00 0.00 72 1030.3
20260506100805 62 230 0.0 0.0 0.00 0.00 0.00 72 1030.3
20260506100306 62 230 0.0 0.0 0.00 0.00 0.00 71 1030.3
20260506095805 63 230 0.0 0.9 0.00 0.00 0.00 71 1030.3
20260506094305 64 230 0.0 0.0 0.00 0.00 0.00 69 1030.3
20260506093805 64 230 0.0 0.9 0.00 0.00 0.00 68 1030.3
20260506093305 64 208 0.0 1.7 0.00 0.00 0.00 68 1030.2
20260506092806 65 209 0.0 0.9 0.00 0.00 0.00 68 1029.9
20260506092306 65 90 0.0 1.7 0.00 0.00 0.00 67 1029.9
20260506090806 66 85 0.9 1.7 0.00 0.00 0.00 66 1029.9
20260506090305 66 20 0.9 2.6 0.00 0.00 0.00 66 1029.9
20260506085805 66 72 0.9 2.6 0.00 0.00 0.00 66 1029.9
20260506084806 66 187 0.9 1.7 0.00 0.00 0.00 66 1029.9
20260506084305 66 76 0.0 0.9 0.00 0.00 0.00 64 1029.7
20260506083805 67 74 1.7 5.2 0.00 0.00 0.00 65 1029.7
20260506083305 67 54 1.7 5.2 0.00 0.00 0.00 64 1029.7
20260506082805 67 97 1.7 4.3 0.00 0.00 0.00 63 1029.7
20260506082305 67 71 1.7 2.6 0.00 0.00 0.00 62 1029.7
20260506081804 68 78 0.9 4.3 0.00 0.00 0.00 62 1029.5
20260506081306 68 65 1.7 6.1 0.00 0.00 0.00 63 1029.5
20260506080804 68 56 2.6 5.2 0.00 0.00 0.00 62 1029.5
20260506080305 68 34 2.6 6.1 0.00 0.00 0.00 62 1029.5
20260506073305 68 12 1.7 5.2 0.00 0.00 0.00 60 1029.6
20260506072805 68 92 2.6 7.0 0.00 0.00 0.00 61 1029.6
20260506071807 68 72 4.3 7.0 0.00 0.00 0.00 62 1029.5
20260506071304 68 56 2.6 6.1 0.00 0.00 0.00 61 1029.5
20260506070804 68 102 2.6 7.8 0.00 0.00 0.00 61 1029.5
20260506062306 68 104 3.5 7.8 0.00 0.00 0.00 63 1029.5
20260506061305 69 113 2.6 4.3 0.00 0.00 0.00 64 1029.5
20260506060304 69 133 1.7 2.6 0.00 0.00 0.00 63 1029.6
20260506051305 68 59 3.5 7.0 0.00 0.00 0.00 65 1029.8
20260506050805 67 97 3.5 7.8 0.00 0.00 0.00 64 1029.9
20260506050305 67 52 2.6 8.7 0.00 0.00 0.00 64 1029.9
20260506044805 67 50 2.6 6.1 0.00 0.00 0.00 65 1030.1
20260506044304 67 64 2.6 6.1 0.00 0.00 0.00 65 1030.2
20260506043306 66 81 4.3 10.4 0.00 0.00 0.00 67 1031.1
20260506042305 65 32 6.1 10.4 0.00 0.00 0.00 66 1031.1
20260506041804 65 38 5.2 8.7 0.00 0.00 0.00 66 1031.1
20260506041304 66 42 3.5 7.8 0.00 0.00 0.00 66 1031.1
20260506040805 66 30 3.5 7.0 0.00 0.00 0.00 66 1031.1
20260506040305 66 41 5.2 10.4 0.00 0.00 0.00 66 1031.1
20260506035805 66 56 4.3 6.1 0.00 0.00 0.00 67 1031.1
20260506035306 65 27 2.6 6.1 0.00 0.00 0.00 68 1031.1
20260506034804 65 55 2.6 8.7 0.00 0.00 0.00 68 1031.1
20260506034305 65 73 4.3 7.0 0.00 0.00 0.00 68 1031.1
20260506033804 65 91 2.6 7.8 0.00 0.00 0.00 70 1031.7
20260506033305 64 64 2.6 12.2 0.00 0.00 0.00 68 1031.7
20260506032805 64 92 3.5 10.4 0.00 0.00 0.00 68 1031.7
20260506032306 64 85 2.6 7.8 0.00 0.00 0.00 69 1031.7
20260506031806 63 49 6.1 11.3 0.00 0.00 0.00 70 1031.7
20260506031305 64 88 4.3 7.8 0.00 0.00 0.00 69 1031.7
20260506030305 63 29 1.7 6.1 0.00 0.00 0.00 72 1031.7
20260506025805 63 72 4.3 10.4 0.00 0.00 0.00 71 1031.7
20260506025306 62 102 5.2 13.9 0.00 0.00 0.00 71 1031.8
20260506024805 62 56 5.2 13.9 0.00 0.00 0.00 72 1031.8
20260506024306 62 59 6.1 10.4 0.00 0.00 0.00 71 1032.2
20260506023807 63 61 1.7 6.1 0.00 0.00 0.00 72 1032.2
20260506023305 62 34 2.6 7.8 0.00 0.00 0.00 72 1032.2
20260506022307 62 98 2.6 7.0 0.00 0.00 0.00 73 1032.2
20260506021804 61 51 5.2 10.4 0.00 0.00 0.00 73 1032.2
20260506021305 61 40 7.8 13.0 0.00 0.00 0.00 73 1032.2
20260506020804 61 59 5.2 11.3 0.00 0.00 0.00 72 1032.2
20260506015805 61 103 2.6 7.0 0.00 0.00 0.00 74 1032.2
20260506015306 61 49 2.6 8.7 0.00 0.00 0.00 73 1032.2
20260506014804 60 73 2.6 8.7 0.00 0.00 0.00 74 1032.2
20260506014305 60 65 2.6 10.4 0.00 0.00 0.00 75 1032.2
20260506013806 59 57 5.2 11.3 0.00 0.00 0.00 75 1032.2
20260506013306 59 53 4.3 7.8 0.00 0.00 0.00 76 1032.3
20260506011805 59 42 2.6 8.7 0.00 0.00 0.00 78 1032.3
20260506011305 58 106 5.2 8.7 0.00 0.00 0.00 78 1032.3
20260506010805 58 78 4.3 12.2 0.00 0.00 0.00 79 1032.2
20260506010305 58 64 3.5 10.4 0.00 0.00 0.00 80 1032.2
20260506005805 58 102 4.3 6.1 0.00 0.00 0.00 79 1032.2
20260506005306 57 54 2.6 7.8 0.00 0.00 0.00 80 1032.2
20260506004805 57 68 4.3 7.8 0.00 0.00 0.00 81 1032.2
20260506003804 57 100 2.6 7.8 0.00 0.00 0.00 81 1032.0
20260506003304 56 87 2.6 10.4 0.00 0.00 0.00 82 1032.0
20260506002805 56 41 2.6 6.1 0.00 0.00 0.00 82 1032.0
20260506002306 56 76 4.3 7.0 0.00 0.00 0.00 82 1032.0
20260506001806 56 45 4.3 8.7 0.00 0.00 0.00 82 1031.6
20260506001305 55 106 4.3 7.0 0.00 0.00 0.00 83 1031.6
20260505235805 55 92 4.3 7.8 0.00 0.00 0.00 84 1031.6
20260505235305 55 42 3.5 7.0 0.00 0.00 0.00 84 1031.6
20260505234805 55 73 5.2 8.7 0.00 0.00 0.00 84 1031.6
20260505234305 55 39 4.3 11.3 0.00 0.00 0.00 84 1031.7
20260505233805 55 65 2.6 8.7 0.00 0.00 0.00 84 1031.7
20260505233305 54 45 4.3 7.0 0.00 0.00 0.00 85 1031.2
20260505232806 54 59 4.3 7.0 0.00 0.01 0.00 85 1031.2
20260505232306 54 78 2.6 5.2 0.00 0.01 0.00 85 1031.2
20260505231805 54 60 4.3 8.7 0.00 0.01 0.00 86 1031.2
20260505231305 54 57 3.5 7.8 0.00 0.01 0.00 86 1031.2
20260505230806 54 0 0.9 4.3 0.00 0.01 0.00 85 1031.2
20260505230305 54 64 2.6 6.1 0.00 0.01 0.00 85 1031.2
20260505225804 54 26 3.5 6.1 0.00 0.01 0.00 85 1031.2
20260505225306 54 21 2.6 5.2 0.00 0.01 0.00 85 1031.2
20260505224806 54 84 1.7 5.2 0.00 0.01 0.00 85 1030.7
20260505223806 54 64 3.5 5.2 0.00 0.01 0.00 85 1030.7
20260505222805 54 80 2.6 10.4 0.00 0.01 0.00 86 1030.7
20260505222306 54 205 1.7 7.0 0.00 0.01 0.00 87 1030.7
20260505221806 54 101 2.6 7.8 0.00 0.01 0.00 87 1030.7
20260505221305 54 109 0.9 5.2 0.00 0.01 0.00 87 1030.2
20260505220804 53 37 3.5 7.8 0.00 0.01 0.00 88 1030.2
20260505220304 53 75 2.6 4.3 0.00 0.01 0.00 88 1030.2
20260505215806 53 62 0.9 5.2 0.00 0.01 0.00 88 1030.2
20260505215306 53 87 2.6 4.3 0.00 0.01 0.00 89 1030.2
20260505214805 53 95 0.9 4.3 0.00 0.01 0.00 89 1030.2
20260505213806 53 65 2.6 6.1 0.00 0.01 0.00 89 1030.2
20260505213305 53 64 3.5 5.2 0.00 0.01 0.00 89 1030.2
20260505212806 53 45 0.9 1.7 0.00 0.01 0.00 89 1030.2
20260505212306 53 42 1.7 2.6 0.00 0.01 0.00 89 1030.2
20260505211806 53 64 0.9 2.6 0.00 0.01 0.00 89 1030.2
20260505211304 53 51 0.9 2.6 0.00 0.01 0.00 89 1030.2
20260505210805 53 59 1.7 4.3 0.00 0.01 0.00 89 1030.0
20260505210305 53 84 0.9 2.6 0.00 0.01 0.00 89 1030.0
20260505205805 53 69 2.6 7.8 0.00 0.01 0.00 90 1030.0
20260505204305 53 77 1.7 2.6 0.00 0.01 0.00 90 1030.0
20260505203805 53 172 2.6 6.1 0.00 0.01 0.00 90 1030.0
20260505202306 53 82 0.9 2.6 0.00 0.01 0.00 89 1029.7
20260505201805 53 69 0.9 2.6 0.00 0.01 0.00 89 1029.7